K5OLV Weather Reports


time (UTC)temp
C
wind
direction
speed
KPH
gust
KPH
rain 1hr
cm
rain 24hr
cm
rain mn
cm
humidity
%
barometer
mb
20260504081945 13 348 4.8 4.8 0.00 0.00 0.00 54 1014.0
20260504081442 13 246 4.8 4.8 0.00 0.00 0.00 54 1014.0
20260504080938 13 318 0.0 0.0 0.00 0.00 0.00 55 1014.0
20260504080435 13 260 3.2 3.2 0.00 0.00 0.00 54 1013.9
20260504070403 13 308 1.6 3.2 0.00 0.00 0.00 57 1014.1
20260504050750 12 291 4.8 8.0 0.00 0.00 0.00 55 1015.0
20260504050247 12 322 1.6 3.2 0.00 0.00 0.00 55 1014.8
20260504045745 12 322 0.0 1.6 0.00 0.00 0.00 56 1015.0
20260504045239 12 319 1.6 1.6 0.00 0.00 0.00 56 1014.9
20260504044737 12 340 3.2 4.8 0.00 0.00 0.00 56 1014.9
20260504044234 12 227 3.2 3.2 0.00 0.00 0.00 56 1015.2
20260504043731 12 330 3.2 3.2 0.00 0.00 0.00 56 1015.1
20260504043228 12 311 1.6 3.2 0.00 0.00 0.00 56 1014.9
20260504042726 12 307 1.6 3.2 0.00 0.00 0.00 56 1015.0
20260504042222 12 353 4.8 4.8 0.00 0.00 0.00 57 1015.0
20260504041718 12 299 1.6 1.6 0.00 0.00 0.00 56 1015.0
20260504041214 12 317 3.2 4.8 0.00 0.00 0.00 56 1015.1
20260504040711 12 322 3.2 3.2 0.00 0.00 0.00 56 1015.0
20260504040208 13 303 3.2 3.2 0.00 0.00 0.00 55 1015.1
20260504035704 13 313 1.6 3.2 0.00 0.00 0.00 54 1015.1
20260504035202 13 311 4.8 4.8 0.00 0.00 0.00 55 1014.9
20260504034659 12 218 3.2 3.2 0.00 0.00 0.00 56 1015.0
20260504034156 12 29 1.6 1.6 0.00 0.00 0.00 57 1015.1
20260504033654 12 266 1.6 3.2 0.00 0.00 0.00 58 1015.2
20260504033151 12 308 1.6 3.2 0.00 0.00 0.00 57 1015.2
20260504032647 12 256 4.8 4.8 0.00 0.00 0.00 57 1015.3
20260504032145 12 217 1.6 1.6 0.00 0.00 0.00 56 1015.0
20260504031642 13 297 3.2 4.8 0.00 0.00 0.00 56 1015.5
20260504031138 13 255 1.6 1.6 0.00 0.00 0.00 54 1015.4
20260504030634 13 248 4.8 4.8 0.00 0.00 0.00 54 1015.3
20260504030131 13 356 3.2 4.8 0.00 0.00 0.00 53 1014.9
20260504025628 13 13 3.2 4.8 0.00 0.00 0.00 53 1014.9
20260504025125 13 211 6.4 9.7 0.00 0.00 0.00 53 1015.1
20260504024622 13 234 1.6 1.6 0.00 0.00 0.00 54 1015.1
20260504024119 13 110 3.2 4.8 0.00 0.00 0.00 53 1015.1
20260504023615 13 282 4.8 4.8 0.00 0.00 0.00 52 1015.1
20260504023111 13 326 4.8 8.0 0.00 0.00 0.00 52 1015.0
20260504022608 13 258 3.2 4.8 0.00 0.00 0.00 53 1015.0
20260504022104 13 311 1.6 3.2 0.00 0.00 0.00 53 1014.9
20260504021602 13 244 1.6 1.6 0.00 0.00 0.00 53 1015.1
20260504021058 13 266 3.2 4.8 0.00 0.00 0.00 54 1014.9
20260504020555 13 294 4.8 4.8 0.00 0.00 0.00 53 1015.1
20260504020051 13 307 1.6 1.6 0.00 0.00 0.00 54 1015.2
20260504015548 13 266 3.2 3.2 0.00 0.00 0.00 54 1015.1
20260504015044 13 232 1.6 3.2 0.00 0.00 0.00 56 1014.8
20260504014540 13 346 3.2 4.8 0.00 0.00 0.00 56 1015.0
20260504014038 13 293 6.4 8.0 0.00 0.00 0.00 57 1014.8
20260504013535 13 175 1.6 3.2 0.00 0.00 0.00 58 1014.7
20260504013032 13 249 3.2 4.8 0.00 0.00 0.00 59 1014.7
20260504012530 14 342 1.6 1.6 0.00 0.00 0.00 58 1014.7
20260504012027 13 359 1.6 4.8 0.00 0.00 0.00 57 1014.6
20260504011524 13 304 1.6 1.6 0.00 0.00 0.00 57 1014.6
20260504011020 13 30 1.6 3.2 0.00 0.00 0.00 57 1014.5
20260504010516 13 196 1.6 3.2 0.00 0.00 0.00 57 1014.4
20260504010012 13 297 1.6 3.2 0.00 0.00 0.00 57 1014.4
20260504005509 14 267 0.0 0.0 0.00 0.00 0.00 57 1014.7
20260504005006 13 321 0.0 1.6 0.00 0.00 0.00 56 1014.6
20260504004504 13 320 1.6 3.2 0.00 0.00 0.00 56 1014.3
20260504004001 14 300 0.0 1.6 0.00 0.00 0.00 56 1014.5
20260504003457 14 329 0.0 0.0 0.00 0.00 0.00 56 1014.5
20260504002954 14 330 1.6 1.6 0.00 0.00 0.00 55 1014.5
20260504002451 15 264 1.6 1.6 0.00 0.00 0.00 55 1014.6
20260504001948 15 321 1.6 1.6 0.00 0.00 0.00 57 1014.6
20260504001445 15 329 3.2 3.2 0.00 0.00 0.00 56 1014.5
20260504000942 15 346 1.6 3.2 0.00 0.00 0.00 56 1014.4
20260504000439 15 331 1.6 3.2 0.00 0.00 0.00 54 1014.4
20260503235936 15 314 0.0 1.6 0.00 0.00 0.00 55 1014.7
20260503235434 15 312 1.6 1.6 0.00 0.00 0.00 56 1014.5
20260503234931 16 251 1.6 3.2 0.00 0.00 0.00 55 1014.4
20260503234429 16 321 4.8 4.8 0.00 0.00 0.00 53 1014.4
20260503233927 16 318 3.2 3.2 0.00 0.00 0.00 55 1014.4
20260503233423 16 293 3.2 3.2 0.00 0.00 0.00 54 1014.5
20260503232919 16 309 1.6 1.6 0.00 0.00 0.00 55 1014.5
20260503232416 16 303 1.6 3.2 0.00 0.00 0.00 59 1014.4
20260503231914 16 305 4.8 4.8 0.00 0.00 0.00 56 1014.4
20260503231411 16 317 3.2 3.2 0.00 0.00 0.00 56 1014.7
20260503230908 16 315 3.2 3.2 0.00 0.00 0.00 56 1014.6
20260503230404 17 303 1.6 1.6 0.00 0.00 0.00 56 1014.6
20260503225902 17 307 3.2 3.2 0.00 0.00 0.00 55 1014.4
20260503225358 17 338 1.6 3.2 0.00 0.00 0.00 53 1014.7
20260503224854 17 349 1.6 1.6 0.00 0.00 0.00 55 1014.8
20260503224351 17 306 4.8 4.8 0.00 0.00 0.00 54 1014.6
20260503223849 17 324 4.8 4.8 0.00 0.00 0.00 53 1014.6
20260503223347 17 299 3.2 3.2 0.00 0.00 0.00 56 1014.8
20260503222842 17 318 4.8 8.0 0.00 0.00 0.00 52 1014.6
20260503222341 17 291 3.2 4.8 0.00 0.00 0.00 54 1014.8
20260503221838 17 312 3.2 3.2 0.00 0.00 0.00 52 1014.8
20260503221337 17 303 1.6 1.6 0.00 0.00 0.00 55 1014.7
20260503220832 17 306 1.6 3.2 0.00 0.00 0.00 53 1014.9
20260503220330 17 310 4.8 4.8 0.00 0.00 0.00 52 1014.9
20260503215826 17 247 3.2 3.2 0.00 0.00 0.00 51 1014.7
20260503215324 18 324 4.8 8.0 0.00 0.00 0.00 53 1014.9
20260503214821 17 275 3.2 3.2 0.00 0.00 0.00 54 1015.1
20260503214318 18 266 3.2 3.2 0.00 0.00 0.00 51 1014.9
20260503213816 17 323 4.8 4.8 0.00 0.00 0.00 53 1015.0
20260503213313 17 290 4.8 8.0 0.00 0.00 0.00 53 1015.1
20260503212810 17 314 3.2 4.8 0.00 0.00 0.00 53 1014.9
20260503212308 17 299 8.0 9.7 0.00 0.00 0.00 52 1015.2
20260503211805 17 302 3.2 4.8 0.00 0.00 0.00 51 1015.2
20260503211302 17 323 4.8 4.8 0.00 0.00 0.00 51 1015.2
20260503210801 18 326 6.4 9.7 0.00 0.00 0.00 51 1015.3
20260503210259 18 268 4.8 4.8 0.00 0.00 0.00 51 1015.8
20260503205754 17 307 3.2 3.2 0.00 0.00 0.00 51 1015.5
20260503205251 17 306 3.2 3.2 0.00 0.00 0.00 51 1015.8
20260503204747 18 309 11.3 12.9 0.00 0.00 0.00 47 1015.5
20260503204245 18 305 1.6 3.2 0.00 0.00 0.00 51 1015.8
20260503203743 17 308 3.2 3.2 0.00 0.00 0.00 48 1015.9
20260503203240 18 306 4.8 4.8 0.00 0.00 0.00 48 1015.9
20260503202737 17 269 4.8 4.8 0.00 0.00 0.00 46 1016.0
20260503202235 17 305 3.2 4.8 0.00 0.00 0.00 49 1016.2
20260503201732 17 353 6.4 11.3 0.00 0.00 0.00 46 1016.2
20260503201230 17 311 3.2 4.8 0.00 0.00 0.00 47 1016.2
20260503200726 18 297 3.2 3.2 0.00 0.00 0.00 48 1016.3
20260503200222 18 325 3.2 3.2 0.00 0.00 0.00 44 1016.4
20260503195719 18 312 3.2 3.2 0.00 0.00 0.00 47 1016.5
20260503195216 17 301 1.6 3.2 0.00 0.00 0.00 45 1016.7
20260503194714 17 303 4.8 4.8 0.00 0.00 0.00 43 1016.5
20260503194209 17 313 1.6 3.2 0.00 0.00 0.00 44 1016.5
20260503193706 16 303 3.2 3.2 0.00 0.00 0.00 43 1016.9
20260503193202 17 307 3.2 3.2 0.00 0.00 0.00 47 1016.8
20260503192657 17 308 4.8 4.8 0.00 0.00 0.00 45 1016.9
20260503192153 16 321 4.8 4.8 0.00 0.00 0.00 45 1017.0
20260503191649 17 269 4.8 8.0 0.00 0.00 0.00 46 1017.0
20260503191147 16 320 4.8 4.8 0.00 0.00 0.00 43 1017.1
20260503190644 17 309 4.8 4.8 0.00 0.00 0.00 46 1017.3
20260503190141 17 32 4.8 8.0 0.00 0.00 0.00 50 1017.1
20260503185637 16 242 1.6 3.2 0.00 0.00 0.00 48 1017.3
20260503185132 16 310 4.8 4.8 0.00 0.00 0.00 48 1017.3
20260503184628 16 302 6.4 9.7 0.00 0.00 0.00 52 1017.3
20260503184125 16 197 1.6 3.2 0.00 0.00 0.00 48 1017.4
20260503183621 16 340 4.8 4.8 0.00 0.00 0.00 49 1017.5
20260503183118 16 316 4.8 8.0 0.00 0.00 0.00 50 1017.4
20260503182617 16 282 4.8 4.8 0.00 0.00 0.00 56 1017.5
20260503182115 16 305 3.2 4.8 0.00 0.00 0.00 59 1017.5
20260503181611 15 302 3.2 3.2 0.00 0.00 0.00 53 1017.5
20260503181108 16 324 4.8 4.8 0.00 0.00 0.00 55 1017.5
20260503180605 16 323 1.6 1.6 0.00 0.00 0.00 53 1017.8
20260503180103 16 336 4.8 8.0 0.00 0.00 0.00 53 1017.7
20260503175559 15 326 1.6 1.6 0.00 0.00 0.00 52 1017.8
20260503175057 15 306 1.6 1.6 0.00 0.00 0.00 53 1017.9
20260503174553 15 12 1.6 3.2 0.00 0.00 0.00 53 1017.8
20260503174050 16 315 3.2 3.2 0.00 0.00 0.00 50 1018.0
20260503173545 15 285 3.2 3.2 0.00 0.00 0.00 55 1018.1
20260503173042 15 317 6.4 8.0 0.00 0.00 0.00 56 1018.0
20260503172539 15 322 3.2 3.2 0.00 0.00 0.00 56 1018.1
20260503172036 15 317 4.8 4.8 0.00 0.00 0.00 53 1018.2
20260503171533 15 321 1.6 1.6 0.00 0.00 0.00 53 1018.3
20260503171030 15 331 1.6 1.6 0.00 0.00 0.00 48 1018.4
20260503170526 14 329 1.6 3.2 0.00 0.00 0.00 54 1018.4
20260503150919 10 320 4.8 8.0 0.00 0.00 0.00 70 1019.0
20260503150415 10 327 4.8 4.8 0.00 0.00 0.00 76 1018.8
20260503131308 7 327 4.8 8.0 0.00 0.00 0.00 87 1018.5
20260503130806 7 343 3.2 3.2 0.00 0.00 0.00 88 1018.4
20260503130303 6 332 3.2 3.2 0.00 0.00 0.00 89 1018.4
20260503110657 3 27 0.0 0.0 0.00 0.00 0.00 97 1017.7
20260503110154 4 354 0.0 0.0 0.00 0.00 0.00 96 1017.7
20260503100120 5 316 0.0 1.6 0.00 0.00 0.00 95 1017.0